Regional Weather Roundup
Issued by NWS

Home | Current Version | Previous Version | Text Only | Print | Product List | Glossary Off
Versions: 1 2 3 4 5 6 7 8 9 10 11 12 13 14 15 16 17 18 19 20 21 22 23 24 25 26 27 28 29 30 31 32 33 34 35 36 37 38 39 40 41 42 43 44 45 46 47 48 49 50

000
ASUS43 KIND 221659
RWRIN

WEATHER ROUNDUP FOR INDIANA
NATIONAL WEATHER SERVICE INDIANAPOLIS IN
1200 PM EST WED FEB 22 2017

NOTE: "FAIR" INDICATES FEW OR NO CLOUDS BELOW 12,000 FEET WITH NO
SIGNIFICANT WEATHER AND/OR OBSTRUCTIONS TO VISIBILITY.

* - STATION DOES NOT REPORT WEATHER SUCH AS PRECIPITATION OR FOG.

+ - STATION NOT QUALITY CONTROLLED BY THE NATIONAL WEATHER SERVICE.
    USE DATA WITH CAUTION...ESPECIALLY DEWPOINT AND RELATIVE
    HUMIDITY OBSERVATIONS.

INZ001>003-010>013-019-020-221800-
NORTHWEST INDIANA

CITY           SKY/WX    TMP DP  RH WIND       PRES   REMARKS
GARY /AIRPORT/ CLOUDY    57  54  88 SW8       29.80F FOG
KNOX *+        CLOUDY    57  37  47 S13       29.81S
MICHIGAN CITY+ CLOUDY    57  54  88 SW9       29.80F
RENSSELAER +   MOSUNNY   61  59  94 S14       29.81F
VALPARAISO     CLOUDY    57  54  89 SW13      29.81F FOG

$$

LMZ046-743>745-221800-
SOUTHERN LAKE MICHIGAN

STATION/POSITION TIME  TEMP    WIND        PRES    WAVE
                       AIR SEA DIR/SP/G            HT
                 (UTC) (F)     (DEG/KT/KT) (MB)    (FT)
BURNS HARBOR     1640   55     190/ 11/ 15 1009.5F
MICHIGAN CITY    1630   57     160/  7/  8   N/A

$$

INZ004-005-014>016-021>024-221800-
NORTH CENTRAL INDIANA

CITY           SKY/WX    TMP DP  RH WIND       PRES   REMARKS
ELKHART        CLOUDY    57  54  88 S8        29.82S FOG
GOSHEN         CLOUDY    58  52  80 SW14      29.82F HAZE
SOUTH BEND     CLOUDY    58  53  84 SW12      29.82F
WARSAW +       CLOUDY    59  52  77 SW6       29.83F HAZE

$$

INZ006>009-017-018-025>027-221800-
NORTHEAST INDIANA

CITY           SKY/WX    TMP DP  RH WIND       PRES   REMARKS
ANGOLA *+      CLOUDY    57  50  77 SW10      29.83S
AUBURN +       CLOUDY    59  52  77 S8        29.84F
FORT WAYNE     CLOUDY    60  54  80 SW10      29.84F
KENDALLVILLE + CLOUDY    58  54  86 S10       29.83F FOG

$$

INZ028-029-035-036-043>045-051>053-221800-
WEST CENTRAL INDIANA

CITY           SKY/WX    TMP DP  RH WIND       PRES   REMARKS
LAFAYETTE      CLOUDY    57  55  93 SW7       29.83F FOG
TERRE HAUTE    CLOUDY    60  54  80 S10       29.85F

$$

INZ030>032-037>040-046>048-054>057-064-065-221800-
CENTRAL INDIANA

CITY           SKY/WX    TMP DP  RH WIND       PRES   REMARKS
CP ATTERBURY + CLOUDY    61  55  82 S6        29.89S
COLUMBUS       CLOUDY    57  57 100 S9        29.90S FOG
FRANKFORT +    CLOUDY    59  57  92 SW9       29.86S FOG
GREENWOOD *+   CLOUDY    60  57  88 S8        29.88S
INDIANAPOLIS   CLOUDY    61  55  81 S10       29.86F
-EAGLE CREEK   CLOUDY    61  54  77 S8        29.85F
KOKOMO +       CLOUDY    59  56  89 S12       29.85F FOG
MT COMFORT *+  CLOUDY    59  55  88 S6        29.87F
SHELBYVILLE    CLOUDY    59  54  83 S9        29.88S HAZE

$$

INZ033-034-041-042-049-050-058-059-221800-
EAST CENTRAL INDIANA

CITY           SKY/WX    TMP DP  RH WIND       PRES   REMARKS
MUNCIE         CLOUDY    61  55  81 S9        29.86F

$$

INZ060-061-067>069-081>083-085>088-221800-
SOUTHWEST INDIANA

CITY           SKY/WX    TMP DP  RH WIND       PRES   REMARKS
EVANSVILLE     MOSUNNY   67  56  67 CALM      29.88F
HUNTINGBURG *+ MOSUNNY   64  57  78 VRB3      29.89F

$$

INZ062-063-066-070>080-084-089>092-221800-
SOUTH CENTRAL AND SOUTHEAST INDIANA

CITY           SKY/WX    TMP DP  RH WIND       PRES   REMARKS
BLOOMINGTON    CLOUDY    60  55  83 S8        29.87F
MADISON *+     CLOUDY    59  55  88 S7        29.92F
SEYMOUR +      CLOUDY    61  57  88 S7        29.89F

$$





USA.gov is the U.S. government's official web portal to all federal, state and local government web resources and services.